Location: Bakov nad Jizerou
(50.4784°N, 14.9394°E)
Time: 08:55:14
(UTC+00:00)

Cosmos 1455 - Pass Details

Date: 16 June 2021
Orbit: 496 x 521 km, 82.5° (Epoch: 04 August)

Event Time Altitude Azimuth Distance (km) Brightness Sun altitude
Rises 21:54:32 0° 352° (N) 2,657 7.7 -14.7°
Reaches altitude 10° 21:56:42 10° 355° (N) 1,760 6.2 -14.8°
Maximum altitude 22:00:32 65° 78° (ENE) 574 2.3 -14.9°
Enters shadow 22:02:23 28° 152° (SSE) 982 3.0 -15.0°
